Weather in Muruntau

Uzbekistan     41°31′29″N   64°36′00″E
temp.,
°C
wind,
m/s
gust,
m/s
humid.,
%
clouds,
%
prec.,
mm/h
press.,
hPa
HPBL,
m
9 may, sun
sun923:00+21nw121332100 2.4 1014762
02:00+16n3366100 0.3 1014243
05:00+17nnw595743 0.8 1014508
08:00+17nnw675178 0.0 1016602
11:00+21nnw653738 0.0 10161107
14:00+23n442997 0.0 10151648
17:00+24nne552598 0.0 10141852
20:00+23ne6726100 0.0 10141239
10 may, mon
mon1023:00+21ne81128100 0.0 1013642
02:00+20ne81125100 0.0 1013515
05:00+18ne91329100 0.0 1013544
08:00+18ne91130100 0.0 1014645
11:00+20ne882399 0.0 1013992
14:00+23ne8817100 0.0 10131278
17:00+24ne881593 0.0 10121612
20:00+22nne791934 0.0 1014627
11 may, tue
tue1123:00+20nne58234 0.0 1015439
02:00+19n36250 0.0 1015229
05:00+18n47270 0.0 1015199
08:00+20nne46240 0.0 1017411
11:00+23nne55200 0.0 10171520
14:00+26n66160 0.0 10162036
17:00+26nne77185 0.0 10161992
20:00+23nne78260 0.0 1016870
12 may, wed
wed1223:00+21nne69280 0.0 1017519
02:00+19nne69400 0.0 1016488
05:00+18nne610450 0.0 1017456
08:00+19ne911420 0.0 10181065
11:00+21ne1011310 0.0 10181511
14:00+24ne11121856 0.0 10181599
17:00+25ne11131416 0.0 10171563
20:00+22ne12141686 0.0 10181049
13 may, thu
thu1323:00+19ene10132764 0.0 1018849
02:00+17ene813365 0.0 1018666
05:00+15ne916380 0.0 1018629
08:00+17ne1014300 0.0 1018956
11:00+21ne1214180 0.0 10171259
14:00+24ne1213130 0.0 10161676
17:00+24ne1011120 0.0 10161814
20:00+23ne812140 0.0 1016899